TimeEDT,TemperatureF,Dew PointF,Humidity,Sea Level PressureIn,VisibilityMPH,Wind Direction,Wind SpeedMPH,Gust SpeedMPH,PrecipitationIn,Events,Conditions,WindDirDegrees,DateUTC
12:56 AM,61.0,57.0,87,30.15,10.0,South,5.8,-,N/A,,Clear,170,2012-10-05 04:56:00
1:56 AM,63.0,57.0,81,30.13,10.0,SE,3.5,-,N/A,,Clear,140,2012-10-05 05:56:00
2:56 AM,59.0,57.0,93,30.14,9.0,SE,3.5,-,N/A,,Clear,130,2012-10-05 06:56:00
3:56 AM,60.1,57.0,90,30.13,9.0,ESE,5.8,-,N/A,,Clear,120,2012-10-05 07:56:00
4:56 AM,63.0,57.0,81,30.12,9.0,SSE,4.6,-,N/A,,Clear,150,2012-10-05 08:56:00
5:56 AM,57.9,57.0,97,30.12,8.0,ESE,4.6,-,N/A,,Mostly Cloudy,120,2012-10-05 09:56:00
6:56 AM,57.9,55.9,93,30.13,8.0,SE,5.8,-,N/A,,Mostly Cloudy,130,2012-10-05 10:56:00
7:56 AM,60.1,55.9,86,30.13,6.0,Calm,Calm,-,N/A,,Scattered Clouds,0,2012-10-05 11:56:00
8:56 AM,62.1,57.9,86,30.12,6.0,SSE,4.6,-,N/A,,Partly Cloudy,160,2012-10-05 12:56:00
9:56 AM,64.0,59.0,84,30.12,7.0,Variable,3.5,-,N/A,,Partly Cloudy,0,2012-10-05 13:56:00
10:56 AM,70.0,60.1,71,30.11,9.0,West,5.8,-,N/A,,Partly Cloudy,260,2012-10-05 14:56:00
11:56 AM,68.0,60.1,76,30.10,9.0,WSW,5.8,-,N/A,,Mostly Cloudy,250,2012-10-05 15:56:00
12:56 PM,71.1,61.0,70,30.09,9.0,SW,9.2,-,N/A,,Mostly Cloudy,230,2012-10-05 16:56:00
1:56 PM,75.0,60.1,60,30.06,10.0,West,9.2,-,N/A,,Mostly Cloudy,270,2012-10-05 17:56:00
2:56 PM,71.1,60.1,68,30.02,10.0,West,5.8,-,N/A,,Mostly Cloudy,270,2012-10-05 18:56:00
3:56 PM,73.9,60.1,62,30.00,10.0,West,9.2,-,N/A,,Mostly Cloudy,270,2012-10-05 19:56:00
4:56 PM,73.0,60.1,64,29.99,9.0,WNW,8.1,-,N/A,,Overcast,290,2012-10-05 20:56:00
5:56 PM,72.0,60.1,66,29.96,9.0,West,3.5,-,N/A,,Overcast,280,2012-10-05 21:56:00
6:56 PM,71.1,60.1,68,29.96,9.0,WNW,5.8,-,N/A,,Overcast,290,2012-10-05 22:56:00
7:56 PM,70.0,61.0,73,29.96,9.0,North,6.9,-,N/A,,Overcast,10,2012-10-05 23:56:00
8:56 PM,60.1,54.0,80,29.99,10.0,NNW,20.7,27.6,0.00,,Overcast,330,2012-10-06 00:56:00
9:28 PM,53.6,51.8,94,30.00,9.0,North,21.9,27.6,0.00,Rain,Light Rain,360,2012-10-06 01:28:00
9:56 PM,50.0,46.9,89,30.06,10.0,NW,21.9,28.8,0.00,Rain,Light Rain,310,2012-10-06 01:56:00
10:46 PM,48.2,44.6,87,30.04,10.0,North,13.8,-,0.00,Rain,Light Rain,350,2012-10-06 02:46:00
10:56 PM,48.0,45.0,89,30.05,10.0,NNW,18.4,23.0,0.00,Rain,Light Rain,340,2012-10-06 02:56:00
11:06 PM,46.4,44.6,93,30.04,10.0,North,20.7,26.5,0.00,,Overcast,350,2012-10-06 03:06:00
11:56 PM,45.0,43.0,93,30.09,10.0,NNW,16.1,23.0,0.03,Rain,Light Rain,340,2012-10-06 03:56:00